SB KEPS @ AMSAT $ORB14009.O Orbital Elements 14009.OSCAR
HR AMSAT ORBITAL ELEMENTS FOR OSCAR SATELLITES FROM WA5QGD FORT WORTH,TX January 9, 2014 BID: ORB14009.O TO ALL RADIO AMATEURS BT
Satellite: AO-07 Catalog number: 07530 Epoch time: 14008.99907899 Element set: 867 Inclination: 101.4541 deg RA of node: 356.1897 deg Eccentricity: 0.0011636 Arg of perigee: 245.4173 deg Mean anomaly: 148.5661 deg Mean motion: 12.53601325 rev/day Decay rate: -2.8e-07 rev/day^2 Epoch rev: 79157 Checksum: 324
Satellite: FO-29 Catalog number: 24278 Epoch time: 14009.69308231 Element set: 281 Inclination: 098.5270 deg RA of node: 045.3401 deg Eccentricity: 0.0350073 Arg of perigee: 349.0033 deg Mean anomaly: 147.0691 deg Mean motion: 13.53013402 rev/day Decay rate: -1.0e-08 rev/day^2 Epoch rev: 85923 Checksum: 270
Satellite: SO-33 Catalog number: 25509 Epoch time: 14009.32772080 Element set: 666 Inclination: 031.4347 deg RA of node: 340.3161 deg Eccentricity: 0.0350565 Arg of perigee: 162.9178 deg Mean anomaly: 318.5287 deg Mean motion: 14.29279504 rev/day Decay rate: 7.39e-06 rev/day^2 Epoch rev: 79440 Checksum: 316
Satellite: RS-22 Catalog number: 27939 Epoch time: 14009.57353312 Element set: 113 Inclination: 097.7989 deg RA of node: 191.7227 deg Eccentricity: 0.0012304 Arg of perigee: 251.0461 deg Mean anomaly: 108.9411 deg Mean motion: 14.64797758 rev/day Decay rate: 1.040e-05 rev/day^2 Epoch rev: 54950 Checksum: 308
Satellite: VO-52 Catalog number: 28650 Epoch time: 14009.15855097 Element set: 628 Inclination: 097.5619 deg RA of node: 022.1721 deg Eccentricity: 0.0024424 Arg of perigee: 325.0583 deg Mean anomaly: 127.0347 deg Mean motion: 14.84596217 rev/day Decay rate: 3.643e-05 rev/day^2 Epoch rev: 46963 Checksum: 316
Satellite: HO-68 Catalog number: 36122 Epoch time: 14009.71247195 Element set: 221 Inclination: 100.2770 deg RA of node: 066.2677 deg Eccentricity: 0.0007190 Arg of perigee: 239.8708 deg Mean anomaly: 120.1694 deg Mean motion: 13.16310815 rev/day Decay rate: -4.4e-07 rev/day^2 Epoch rev: 19558 Checksum: 288
Satellite: AO-73 Catalog number: 39445 Epoch time: 14008.91110101 Element set: 32 Inclination: 097.7937 deg RA of node: 084.9527 deg Eccentricity: 0.0064378 Arg of perigee: 040.6289 deg Mean anomaly: 319.9672 deg Mean motion: 14.77345696 rev/day Decay rate: 2.288e-05 rev/day^2 Epoch rev: 551 Checksum: 330
/EX SB KEPS @ AMSAT $ORB14009.D Orbital Elements 14009.MICROS
HR AMSAT ORBITAL ELEMENTS FOR THE MICROSATS FROM WA5QGD FORT WORTH,TX January 9, 2014 BID: ORB14009.D TO ALL RADIO AMATEURS BT
Satellite: UO-11 Catalog number: 14781 Epoch time: 14009.77739554 Element set: 385 Inclination: 097.8756 deg RA of node: 072.8449 deg Eccentricity: 0.0008019 Arg of perigee: 345.1721 deg Mean anomaly: 014.9256 deg Mean motion: 14.81231030 rev/day Decay rate: 1.691e-05 rev/day^2 Epoch rev: 60451 Checksum: 309
Satellite: AO-16 Catalog number: 20439 Epoch time: 14008.82021251 Element set: 926 Inclination: 098.4937 deg RA of node: 309.2859 deg Eccentricity: 0.0009720 Arg of perigee: 269.6637 deg Mean anomaly: 116.6346 deg Mean motion: 14.32263230 rev/day Decay rate: 2.99e-06 rev/day^2 Epoch rev: 25167 Checksum: 313
Satellite: LO-19 Catalog number: 20442 Epoch time: 14008.61410578 Element set: 864 Inclination: 098.4639 deg RA of node: 310.2255 deg Eccentricity: 0.0010732 Arg of perigee: 258.8822 deg Mean anomaly: 101.1156 deg Mean motion: 14.32469540 rev/day Decay rate: 3.12e-06 rev/day^2 Epoch rev: 25183 Checksum: 278
Satellite: AO-27 Catalog number: 22825 Epoch time: 14008.82776025 Element set: 568 Inclination: 098.6444 deg RA of node: 315.9264 deg Eccentricity: 0.0009103 Arg of perigee: 051.3849 deg Mean anomaly: 335.1465 deg Mean motion: 14.29639148 rev/day Decay rate: 2.69e-06 rev/day^2 Epoch rev: 5801 Checksum: 320
Satellite: IO-26 Catalog number: 22826 Epoch time: 14009.83060508 Element set: 326 Inclination: 098.6389 deg RA of node: 317.1681 deg Eccentricity: 0.0009499 Arg of perigee: 041.8133 deg Mean anomaly: 318.3773 deg Mean motion: 14.29931956 rev/day Decay rate: 3.06e-06 rev/day^2 Epoch rev: 5828 Checksum: 327
Satellite: GO-32 Catalog number: 25397 Epoch time: 14009.85910826 Element set: 249 Inclination: 098.4466 deg RA of node: 333.9487 deg Eccentricity: 0.0002219 Arg of perigee: 077.7194 deg Mean anomaly: 335.0715 deg Mean motion: 14.23392945 rev/day Decay rate: 1.85e-06 rev/day^2 Epoch rev: 80534 Checksum: 332
Satellite: NO-44 Catalog number: 26931 Epoch time: 14009.84684035 Element set: 508 Inclination: 067.0524 deg RA of node: 086.7367 deg Eccentricity: 0.0005931 Arg of perigee: 265.6272 deg Mean anomaly: 094.4151 deg Mean motion: 14.30019907 rev/day Decay rate: 3.41e-06 rev/day^2 Epoch rev: 64096 Checksum: 304
Satellite: SO-50 Catalog number: 27607 Epoch time: 14009.37673541 Element set: 268 Inclination: 064.5581 deg RA of node: 356.2837 deg Eccentricity: 0.0032682 Arg of perigee: 073.5238 deg Mean anomaly: 089.9752 deg Mean motion: 14.73324182 rev/day Decay rate: 2.290e-05 rev/day^2 Epoch rev: 59408 Checksum: 328
Satellite: CO-55 Catalog number: 27844 Epoch time: 14008.97175587 Element set: 828 Inclination: 098.6999 deg RA of node: 020.0456 deg Eccentricity: 0.0009842 Arg of perigee: 021.7059 deg Mean anomaly: 008.3164 deg Mean motion: 14.21358125 rev/day Decay rate: 5.21e-06 rev/day^2 Epoch rev: 54596 Checksum: 330
Satellite: CO-57 Catalog number: 27848 Epoch time: 14009.52992480 Element set: 769 Inclination: 098.7090 deg RA of node: 020.2195 deg Eccentricity: 0.0009819 Arg of perigee: 026.4239 deg Mean anomaly: 126.6463 deg Mean motion: 14.21066211 rev/day Decay rate: 5.85e-06 rev/day^2 Epoch rev: 54596 Checksum: 330
Satellite: AO-51 Catalog number: 28375 Epoch time: 14009.79339916 Element set: 743 Inclination: 098.2317 deg RA of node: 322.2799 deg Eccentricity: 0.0084568 Arg of perigee: 111.1076 deg Mean anomaly: 279.6150 deg Mean motion: 14.41245063 rev/day Decay rate: 4.59e-06 rev/day^2 Epoch rev: 50109 Checksum: 321
Satellite: CP3 Catalog number: 31129 Epoch time: 14009.86402681 Element set: 645 Inclination: 097.9170 deg RA of node: 356.0846 deg Eccentricity: 0.0100412 Arg of perigee: 143.4909 deg Mean anomaly: 279.0652 deg Mean motion: 14.54127403 rev/day Decay rate: 1.658e-05 rev/day^2 Epoch rev: 35702 Checksum: 293
Satellite: CO-65 Catalog number: 32785 Epoch time: 14009.75982182 Element set: 838 Inclination: 097.7244 deg RA of node: 066.1439 deg Eccentricity: 0.0013702 Arg of perigee: 355.6712 deg Mean anomaly: 143.6349 deg Mean motion: 14.84544220 rev/day Decay rate: 4.076e-05 rev/day^2 Epoch rev: 30851 Checksum: 322
Satellite: PRISM Catalog number: 33493 Epoch time: 14009.84560331 Element set: 535 Inclination: 098.2348 deg RA of node: 179.0867 deg Eccentricity: 0.0016864 Arg of perigee: 239.5954 deg Mean anomaly: 120.3602 deg Mean motion: 14.87550683 rev/day Decay rate: 5.674e-05 rev/day^2 Epoch rev: 26862 Checksum: 328
Satellite: SOHLA-1 Catalog number: 33496 Epoch time: 14009.87660059 Element set: 245 Inclination: 098.1523 deg RA of node: 130.6376 deg Eccentricity: 0.0006844 Arg of perigee: 036.5702 deg Mean anomaly: 075.2228 deg Mean motion: 14.70533553 rev/day Decay rate: 1.009e-05 rev/day^2 Epoch rev: 26624 Checksum: 292
Satellite: TISAT-1 Catalog number: 36799 Epoch time: 14009.81305359 Element set: 799 Inclination: 098.0240 deg RA of node: 100.7478 deg Eccentricity: 0.0015452 Arg of perigee: 114.7380 deg Mean anomaly: 245.5435 deg Mean motion: 14.84390897 rev/day Decay rate: 3.577e-05 rev/day^2 Epoch rev: 18921 Checksum: 332
Satellite: STUDSAT Catalog number: 36801 Epoch time: 14008.85494249 Element set: 748 Inclination: 098.0378 deg RA of node: 105.1763 deg Eccentricity: 0.0011281 Arg of perigee: 096.1245 deg Mean anomaly: 047.9565 deg Mean motion: 14.91880090 rev/day Decay rate: 1.2314e-04 rev/day^2 Epoch rev: 18933 Checksum: 311
Satellite: ALMASAT-1 Catalog number: 38078 Epoch time: 14008.67939452 Element set: 897 Inclination: 069.4777 deg RA of node: 080.1794 deg Eccentricity: 0.0650708 Arg of perigee: 241.9833 deg Mean anomaly: 111.4092 deg Mean motion: 14.36785113 rev/day Decay rate: 4.1432e-04 rev/day^2 Epoch rev: 9862 Checksum: 338
Satellite: XATCOBEO Catalog number: 38082 Epoch time: 14009.77204733 Element set: 837 Inclination: 069.4644 deg RA of node: 021.4010 deg Eccentricity: 0.0432569 Arg of perigee: 210.2985 deg Mean anomaly: 203.8104 deg Mean motion: 14.92786407 rev/day Decay rate: 1.18430e-03 rev/day^2 Epoch rev: 10031 Checksum: 277
Satellite: CUBEBUG-1 Catalog number: 39153 Epoch time: 14009.80651269 Element set: 747 Inclination: 098.0568 deg RA of node: 090.4132 deg Eccentricity: 0.0019045 Arg of perigee: 136.8024 deg Mean anomaly: 223.4667 deg Mean motion: 14.77011102 rev/day Decay rate: 2.091e-05 rev/day^2 Epoch rev: 3817 Checksum: 283
Satellite: ESTCUBE-1 Catalog number: 39161 Epoch time: 14009.80033757 Element set: 717 Inclination: 098.1113 deg RA of node: 091.8384 deg Eccentricity: 0.0010183 Arg of perigee: 171.5264 deg Mean anomaly: 188.6146 deg Mean motion: 14.69443034 rev/day Decay rate: 1.645e-05 rev/day^2 Epoch rev: 3633 Checksum: 290
/EX SB KEPS @ AMSAT $ORB14009.W Orbital Elements 14009.WEATHER
HR AMSAT ORBITAL ELEMENTS FOR WEATHER SATELLITES FROM WA5QGD FORT WORTH,TX January 9, 2014 BID: ORB14009.W TO ALL RADIO AMATEURS BT
Satellite: NOAA-10 Catalog number: 16969 Epoch time: 14009.16743567 Element set: 632 Inclination: 098.5276 deg RA of node: 037.3187 deg Eccentricity: 0.0011988 Arg of perigee: 007.1048 deg Mean anomaly: 063.4367 deg Mean motion: 14.27703296 rev/day Decay rate: 2.65e-06 rev/day^2 Epoch rev: 42133 Checksum: 315
Satellite: NOAA-11 Catalog number: 19531 Epoch time: 14009.20395928 Element set: 656 Inclination: 098.6953 deg RA of node: 092.2356 deg Eccentricity: 0.0011563 Arg of perigee: 038.3664 deg Mean anomaly: 321.8330 deg Mean motion: 14.15049870 rev/day Decay rate: 1.61e-06 rev/day^2 Epoch rev: 30525 Checksum: 295
